Location: Unspecified
(0.0000°N, 0.0000°E)
Time: 18:40:58
(UTC+00:00)

OBJECT H - Visible Passes

Search period start: 06 December 2025 00:00
Search period end: 16 December 2025 00:00
Orbit: 984 x 987 km, 50.0° (Epoch: 04 December)

Date Brightness Start Highest point End Pass type
(mag) Time Alt. Az. Time Alt. Az. Time Alt. Az.
06 Dec ? 03:37:30 10° S 03:41:43 18° SE 03:45:56 10° E visible
06 Dec ? 05:25:02 10° SW 05:31:26 59° NW 05:37:49 10° NNE visible
06 Dec ? 18:37:53 10° WSW 18:40:40 13° SW 18:43:27 10° SSW visible
07 Dec ? 04:04:14 10° SSW 04:10:24 44° SE 04:16:33 10° ENE visible
08 Dec ? 02:46:14 10° SSE 02:49:12 13° SE 02:52:09 10° ESE visible
08 Dec ? 04:32:27 10° SW 04:38:58 77° NW 04:45:29 10° NNE visible
09 Dec ? 03:12:07 10° S 03:17:56 34° SE 03:23:42 10° ENE visible
09 Dec ? 05:01:55 10° WSW 05:07:34 31° NW 05:13:13 10° N visible
10 Dec ? 03:43:04 30° SSW 03:46:31 83° SE 03:53:03 10° NE visible
11 Dec ? 02:30:38 10° ENE 02:30:38 10° ENE 02:30:43 10° ENE visible
11 Dec ? 04:15:42 40° NW 04:15:42 40° NW 04:21:09 10° NNE visible
12 Dec ? 04:45:58 14° NNW 04:45:58 14° NNW 04:47:40 10° NNW visible
